Latest Weather Observations for Nerriga

IDN60801

Issued at 8:35 pm EST Saturday 19 April 2014 (issued every 30 minutes, with the page automatically refreshed every 10 minutes)

About weather observations | Map of weather stations | Latest weather observations for NSW | Other Formats
Station Details ID: 069128 Name: NERRIGA AWS Lat: -35.11 Lon: 150.08 Height: 622.0 m
Data from the previous 72 hours. | See also: Recent months for locations in New South Wales
Date/Time
EST
Temp
°C
App
Temp
°C
Dew
Point
Rel
Hum
%
Delta-T
°C
Wind Press
QNH
hPa
Press
MSL
hPa
Rain
since 9 am
mm
Dir
 
Spd
km/h
Gust
km/h
Spd
kts
Gust
kts
19/08:30pm 8.8 7.8 5.7 81 1.5 E 0 0 0 0 1018.5 - 0.0
19/08:00pm 8.5 7.5 5.4 81 1.4 E 0 0 0 0 1018.4 1017.5 0.0
19/07:30pm 8.7 7.7 5.4 80 1.5 CALM 0 0 0 0 1018.2 - 0.0
19/07:00pm 9.0 7.6 5.6 79 1.6 E 2 6 1 3 1018.0 1017.1 0.0
19/06:30pm 9.5 7.2 5.7 77 1.8 E 7 13 4 7 1017.5 - 0.0
19/06:00pm 10.2 7.2 6.2 76 1.9 E 11 15 6 8 1017.1 1016.1 0.0
19/05:30pm 11.3 7.9 6.0 70 2.6 E 13 19 7 10 1016.7 - 0.0
19/05:00pm 12.7 8.9 5.8 63 3.4 E 15 22 8 12 1016.4 1015.5 0.0
19/04:30pm 15.4 12.4 4.2 47 5.4 NW 9 13 5 7 1016.2 - 0.0
19/04:00pm 15.8 13.1 3.6 44 5.8 WNW 7 13 4 7 1016.0 1015.0 0.0
19/03:30pm 16.8 15.0 5.4 47 5.7 NNW 4 9 2 5 1015.9 - 0.0
19/03:00pm 16.4 14.3 3.8 43 6.0 WSW 4 11 2 6 1015.8 1014.8 0.0
19/02:30pm 15.7 13.0 3.5 44 5.8 SSW 7 13 4 7 1015.8 - 0.0
19/02:00pm 15.5 13.4 3.9 46 5.5 SSE 4 9 2 5 1015.8 1014.8 0.0
19/01:30pm 15.2 12.3 2.4 42 5.9 ESE 7 11 4 6 1015.9 - 0.0
19/01:00pm 15.8 14.1 3.9 45 5.7 S 2 6 1 3 1016.2 1015.2 0.0
19/12:30pm 14.2 11.5 2.5 45 5.4 S 6 11 3 6 1016.4 - 0.0
19/12:00pm 13.9 11.2 2.5 46 5.2 W 6 11 3 6 1016.8 1015.9 0.0
19/11:30am 13.4 10.1 2.6 48 4.9 WSW 9 15 5 8 1017.3 - 0.0
19/11:00am 13.0 10.1 2.6 49 4.7 SW 7 13 4 7 1017.6 1016.6 0.0
19/10:30am 12.7 9.9 3.1 52 4.4 WSW 7 11 4 6 1017.9 - 0.0
19/10:00am 12.1 9.6 3.6 56 3.9 SW 6 11 3 6 1018.1 1017.2 0.0
19/09:30am 11.3 8.6 3.8 60 3.5 WSW 7 13 4 7 1018.0 - 0.0
19/09:00am 10.3 7.7 4.0 65 2.9 SSW 7 9 4 5 1018.0 1017.1 -
19/08:30am 9.2 6.1 3.8 69 2.4 SSW 9 13 5 7 1017.9 - -
19/08:00am 8.4 5.3 3.7 72 2.1 SSW 9 13 5 7 1017.7 1016.8 -
19/07:30am 7.6 5.3 4.6 81 1.4 S 6 11 3 6 1017.6 - -
19/07:00am 6.0 4.3 5.7 98 0.1 S 4 6 2 3 1017.3 1016.3 -
19/06:30am 5.7 3.5 5.4 98 0.1 SSE 6 6 3 3 1017.2 - 0.0
19/06:00am 6.3 4.6 6.0 98 0.1 SSE 4 6 2 3 1016.7 1015.8 0.0
19/05:30am 6.7 4.7 6.4 98 0.1 SSW 6 7 3 4 1016.4 - 0.0
19/05:00am 6.3 4.6 6.0 98 0.1 SW 4 6 2 3 1016.4 1015.5 0.0
19/04:30am 5.5 4.4 5.2 98 0.1 CALM 0 6 0 3 1016.0 - 0.0
19/04:00am 5.8 4.8 5.5 98 0.1 CALM 0 0 0 0 1015.8 1014.8 0.0
19/03:30am 6.3 5.0 6.0 98 0.1 SW 2 4 1 2 1015.7 - 0.0
19/03:00am 7.0 5.1 6.7 98 0.1 SW 6 6 3 3 1015.7 1014.7 0.0
19/02:30am 8.0 6.5 6.9 93 0.5 SW 4 6 2 3 1015.7 - 0.0
19/02:00am 9.2 7.2 7.2 87 1.0 SW 7 11 4 6 1015.7 1014.7 0.0
19/01:30am 9.7 7.9 7.8 88 0.9 SW 7 11 4 6 1015.8 - 0.0
19/01:00am 10.2 8.4 7.8 85 1.2 WSW 7 11 4 6 1015.6 1014.6 0.0
19/12:30am 11.4 11.0 8.4 82 1.5 CALM 0 0 0 0 1015.6 - 0.0
19/12:00am 11.8 11.5 8.8 82 1.5 CALM 0 0 0 0 1015.6 1014.6 0.0
 
Date/Time
EST
Temp
°C
App
Temp
°C
Dew
Point
Rel
Hum
%
Delta-T
°C
Wind Press
QNH
hPa
Press
MSL
hPa
Rain
since 9 am
mm
Dir
 
Spd
km/h
Gust
km/h
Spd
kts
Gust
kts
18/11:30pm 12.1 10.7 8.8 80 1.7 W 6 7 3 4 1015.5 - 0.0
18/11:00pm 11.8 11.3 7.9 77 2.0 CALM 0 2 0 1 1015.4 1014.4 0.0
18/10:30pm 12.9 11.3 8.0 72 2.5 WNW 6 11 3 6 1015.4 - 0.0
18/10:00pm 12.9 11.3 8.2 73 2.4 WNW 6 9 3 5 1015.5 1014.5 0.0
18/09:30pm 12.9 10.0 8.0 72 2.5 W 13 19 7 10 1015.4 - 0.0
18/09:00pm 12.8 10.2 7.7 71 2.6 WNW 11 15 6 8 1015.4 1014.4 0.0
18/08:30pm 13.8 10.8 7.8 67 3.1 WNW 13 19 7 10 1015.0 - 0.0
18/08:00pm 14.2 9.9 7.7 65 3.3 WNW 20 32 11 17 1014.7 1013.7 0.0
18/07:30pm 14.4 9.7 7.9 65 3.3 WNW 22 35 12 19 1014.3 - 0.0
18/07:00pm 14.5 9.8 7.8 64 3.4 W 22 30 12 16 1014.5 1013.5 0.0
18/06:30pm 14.8 9.3 7.6 62 3.7 W 26 35 14 19 1014.3 - 0.0
18/06:00pm 15.3 11.1 7.3 59 4.1 W 19 30 10 16 1014.2 1013.2 0.0
18/05:30pm 15.1 10.3 7.2 59 4.0 W 22 33 12 18 1014.1 - 0.0
18/05:00pm 16.4 11.2 7.1 54 4.8 WNW 24 37 13 20 1013.8 1012.8 0.0
18/04:30pm 17.1 11.2 7.5 53 5.0 WNW 28 43 15 23 1013.6 - 0.0
18/04:04pm 17.6 11.9 8.2 54 5.0 W 28 48 15 26 1013.6 - 0.0
18/04:00pm 17.5 11.0 8.1 54 5.0 W 32 48 17 26 1013.6 1012.6 0.0
18/03:30pm 18.0 11.4 7.7 51 5.4 WNW 32 44 17 24 1013.6 - 0.0
18/03:00pm 18.6 12.3 9.1 54 5.1 WNW 32 43 17 23 1013.6 1012.6 0.0
18/02:30pm 17.3 12.4 8.4 56 4.7 WNW 24 37 13 20 1013.6 - 0.0
18/02:00pm 17.9 13.0 9.8 59 4.4 W 26 41 14 22 1013.8 1012.8 0.0
18/01:30pm 17.8 14.2 9.7 59 4.4 W 19 28 10 15 1014.1 - 0.0
18/01:00pm 17.7 12.4 8.6 55 4.8 W 26 43 14 23 1014.3 1013.3 0.0
18/12:30pm 17.8 11.8 7.0 49 5.6 W 28 39 15 21 1014.6 - 0.0
18/12:00pm 17.4 13.7 9.3 59 4.4 WNW 19 26 10 14 1015.1 1014.2 0.0
18/11:30am 16.6 13.8 10.0 65 3.6 NW 15 22 8 12 1015.8 - 0.0
18/11:00am 15.9 15.0 11.3 74 2.5 NW 7 15 4 8 1016.3 1015.4 0.0
18/10:30am 14.3 13.1 11.6 84 1.5 WNW 9 15 5 8 1016.7 - 0.0
18/10:00am 12.1 11.4 10.2 88 1.0 SSW 4 9 2 5 1017.2 1016.2 0.0
18/09:30am 10.4 9.7 10.1 98 0.2 S 4 6 2 3 1017.5 - 0.0
18/09:00am 9.6 9.5 9.3 98 0.2 CALM 0 0 0 0 1017.6 1016.6 0.2
18/08:30am 8.2 7.7 7.9 98 0.1 CALM 0 0 0 0 1017.8 - 0.2
18/08:00am 6.9 6.1 6.6 98 0.1 CALM 0 0 0 0 1017.7 1016.8 0.2
18/07:30am 6.1 5.1 5.8 98 0.1 CALM 0 0 0 0 1017.7 - 0.2
18/07:00am 5.3 4.2 5.0 98 0.1 CALM 0 0 0 0 1017.6 1016.6 0.2
18/06:30am 5.3 4.2 5.0 98 0.1 CALM 0 0 0 0 1017.7 - 0.2
18/06:00am 5.2 4.1 4.9 98 0.1 CALM 0 0 0 0 1017.7 1016.8 0.2
18/05:30am 5.6 4.5 5.3 98 0.1 CALM 0 0 0 0 1017.5 - 0.2
18/05:00am 5.4 4.3 5.1 98 0.1 CALM 0 0 0 0 1017.6 1016.6 0.2
18/04:30am 5.5 4.4 5.2 98 0.1 CALM 0 0 0 0 1017.8 - 0.0
18/04:00am 5.8 4.8 5.5 98 0.1 CALM 0 0 0 0 1018.0 1017.1 0.0
18/03:30am 5.8 4.8 5.5 98 0.1 CALM 0 0 0 0 1018.1 - 0.0
18/03:00am 6.0 5.0 5.7 98 0.1 CALM 0 0 0 0 1018.2 1017.3 0.0
18/02:30am 5.5 4.4 5.2 98 0.1 CALM 0 0 0 0 1018.4 - 0.0
18/02:00am 5.8 4.8 5.5 98 0.1 CALM 0 0 0 0 1019.0 1018.0 0.0
18/01:30am 6.7 5.9 6.4 98 0.1 CALM 0 0 0 0 1019.2 - 0.0
18/01:00am 6.2 5.3 5.9 98 0.1 CALM 0 0 0 0 1019.4 1018.5 0.0
18/12:30am 6.5 5.6 6.2 98 0.1 CALM 0 0 0 0 1019.7 - 0.0
18/12:00am 7.5 6.9 7.2 98 0.1 CALM 0 0 0 0 1019.9 1019.0 0.0
 
Date/Time
EST
Temp
°C
App
Temp
°C
Dew
Point
Rel
Hum
%
Delta-T
°C
Wind Press
QNH
hPa
Press
MSL
hPa
Rain
since 9 am
mm
Dir
 
Spd
km/h
Gust
km/h
Spd
kts
Gust
kts
17/11:30pm 6.9 6.1 6.6 98 0.1 CALM 0 0 0 0 1020.1 - 0.0
17/11:00pm 7.9 7.3 7.6 98 0.1 CALM 0 0 0 0 1020.4 1019.4 0.0
17/10:30pm 6.7 5.1 6.4 98 0.1 ESE 4 4 2 2 1020.8 - 0.0
17/10:00pm 7.2 6.1 6.9 98 0.1 ESE 2 4 1 2 1021.1 1020.2 0.0
17/09:30pm 7.9 7.3 7.6 98 0.1 CALM 0 0 0 0 1021.2 - 0.0
17/09:00pm 7.9 7.0 7.6 98 0.1 ESE 2 4 1 2 1020.9 1020.0 0.0
17/08:30pm 8.7 8.0 8.4 98 0.2 ESE 2 6 1 3 1021.0 - 0.0
17/08:00pm 9.9 9.3 9.1 95 0.4 ESE 2 4 1 2 1020.9 1020.0 0.0
17/07:30pm 10.9 10.9 9.7 92 0.6 CALM 0 0 0 0 1020.6 - 0.0
17/07:00pm 11.4 11.0 9.8 90 0.8 ESE 2 4 1 2 1020.4 1019.4 0.0
17/06:30pm 11.5 10.5 8.9 84 1.3 E 4 6 2 3 1020.2 - 0.0
17/06:00pm 12.4 10.9 9.2 81 1.7 ESE 7 11 4 6 1019.9 1019.0 0.0
17/05:30pm 13.5 10.5 9.2 75 2.3 SE 15 19 8 10 1019.7 - 0.0
17/05:00pm 14.4 10.9 8.6 68 3.0 SE 17 20 9 11 1019.5 1018.6 0.0
17/04:30pm 15.8 12.7 9.0 64 3.6 SE 15 20 8 11 1019.3 - 0.0
17/04:00pm 16.7 13.6 8.7 59 4.2 ESE 15 20 8 11 1019.2 1018.3 0.0
17/03:30pm 17.7 16.3 8.8 56 4.8 SSE 6 17 3 9 1019.0 - 0.0
17/03:00pm 16.7 14.1 7.9 56 4.6 S 11 17 6 9 1019.3 1018.4 0.0
17/02:30pm 17.9 15.6 7.3 50 5.5 S 9 17 5 9 1019.3 - 0.0
17/02:00pm 16.7 13.4 4.7 45 5.9 SW 11 19 6 10 1019.5 1018.6 0.0
17/01:30pm 18.0 15.4 6.2 46 6.0 SW 9 17 5 9 1019.5 - 0.0
17/01:00pm 17.4 13.6 5.7 46 5.9 SSW 15 22 8 12 1019.8 1018.9 0.0
17/12:30pm 17.7 15.8 7.7 52 5.2 WSW 7 13 4 7 1020.0 - 0.0
17/12:00pm 17.7 15.1 7.7 52 5.2 WSW 11 19 6 10 1020.4 1019.4 0.0
17/11:30am 16.4 13.8 7.9 57 4.4 SSW 11 17 6 9 1020.9 - 0.0
17/11:00am 16.3 14.5 9.3 63 3.7 SW 9 19 5 10 1021.1 1020.2 0.0
17/10:30am 14.8 13.0 9.6 71 2.8 SW 9 15 5 8 1021.3 - 0.0
17/10:00am 13.1 11.9 10.3 83 1.5 SW 7 11 4 6 1021.4 1020.5 0.0
17/09:30am 11.2 9.9 10.0 92 0.6 WSW 7 13 4 7 1021.5 - 0.0
17/09:00am 10.0 8.8 9.5 97 0.3 SSW 6 7 3 4 1021.6 1020.7 0.2
17/08:30am 9.1 8.8 8.8 98 0.2 CALM 0 4 0 2 1021.5 - 0.2
17/08:00am 7.1 6.4 6.8 98 0.1 CALM 0 0 0 0 1021.4 1020.5 0.2
17/07:30am 5.7 4.7 5.4 98 0.1 CALM 0 2 0 1 1021.1 - 0.2
17/07:00am 4.1 2.7 3.8 98 0.1 CALM 0 0 0 0 1020.8 1019.9 0.2
17/06:30am 3.8 2.4 3.5 98 0.1 CALM 0 0 0 0 1020.4 - 0.2
17/06:00am 3.5 2.0 3.2 98 0.1 CALM 0 0 0 0 1020.0 1019.1 0.2
17/05:30am 4.3 3.0 4.0 98 0.1 CALM 0 0 0 0 1020.0 - 0.2
17/05:00am 5.8 4.4 5.5 98 0.1 S 2 6 1 3 1019.8 1018.9 0.2
17/04:30am 4.4 2.3 4.1 98 0.1 S 4 6 2 3 1019.7 - 0.0
17/04:00am 5.0 3.4 4.7 98 0.1 S 2 4 1 2 1019.7 1018.8 0.0
17/03:30am 4.3 3.0 4.0 98 0.1 CALM 0 0 0 0 1019.6 - 0.0
17/03:00am 6.0 4.3 5.7 98 0.1 S 4 6 2 3 1019.6 1018.7 0.0
17/02:30am 6.4 5.1 6.1 98 0.1 S 2 4 1 2 1019.7 - 0.0
17/02:00am 5.4 4.3 5.1 98 0.1 CALM 0 0 0 0 1019.9 1019.0 0.0
17/01:30am 5.7 4.7 5.4 98 0.1 CALM 0 0 0 0 1020.0 - 0.0
17/01:00am 6.0 5.0 5.7 98 0.1 CALM 0 0 0 0 1020.5 1019.6 0.0
17/12:30am 6.9 6.1 6.6 98 0.1 CALM 0 0 0 0 1020.6 - 0.0
17/12:00am 6.5 5.6 6.2 98 0.1 CALM 0 2 0 1 1020.7 1019.8 0.0
 
Date/Time
EST
Temp
°C
App
Temp
°C
Dew
Point
Rel
Hum
%
Delta-T
°C
Wind Press
QNH
hPa
Press
MSL
hPa
Rain
since 9 am
mm
Dir
 
Spd
km/h
Gust
km/h
Spd
kts
Gust
kts
16/11:30pm 6.6 5.4 6.3 98 0.1 SSE 2 4 1 2 1020.8 - 0.0
16/11:00pm 7.7 7.1 7.4 98 0.1 CALM 0 0 0 0 1020.9 1020.0 0.0
16/10:30pm 7.4 6.0 7.1 98 0.1 SSE 4 6 2 3 1021.0 - 0.0
16/10:00pm 7.1 5.2 6.8 98 0.1 S 6 6 3 3 1021.1 1020.2 0.0
16/09:30pm 8.1 6.5 7.8 98 0.1 S 6 7 3 4 1021.3 - 0.0
16/09:00pm 8.2 7.7 7.9 98 0.1 CALM 0 0 0 0 1021.1 1020.2 0.0

Other Formats:

Comma delimited format used in spreadsheet applications
http://www.bom.gov.au/fwo/IDN60801/IDN60801.94943.axf

JavaScript Object Notation format (JSON) in row-major order
http://www.bom.gov.au/fwo/IDN60801/IDN60801.94943.json